Regional Weather Roundup
Issued by NWS

Home | Current Version | Previous Version | Text Only | Print | Product List | Glossary Off
Versions: 1 2 3 4 5 6 7 8 9 10 11 12 13 14 15 16 17 18 19 20 21 22 23 24 25 26 27 28 29 30 31 32 33 34 35 36 37 38 39 40 41 42 43 44 45 46 47 48 49 50

000
ASUS45 KBOU 280907
RWRCO

WEATHER ROUNDUP FOR COLORADO
NATIONAL WEATHER SERVICE DENVER/BOULDER CO
200 AM MST SAT FEB 28 2015

NOTE: "FAIR" INDICATES FEW OR NO CLOUDS BELOW 12000 FEET WITH NO
SIGNIFICANT WEATHER AND/OR OBSTRUCTIONS TO VISIBILITY.

COZ001>005-013-030-031-281000-
...NORTHWEST COLORADO...

CITY           SKY/WX    TMP DP  RH WIND       PRES   REMARKS
CRAIG          PTCLDY    19   9  65 MISG      29.78
HAYDEN         PTCLDY    12   3  67 E12       29.77R WCI  -2
MEEKER         CLEAR     13   7  77 CALM      29.77S
MOUNT WERNER   NOT AVBL
STEAMBOAT SPGS PTCLDY     6   1  78 CALM      29.78S
WALDEN         PTCLDY    -4  -9  77 CALM      29.75S
$$

COZ006>008-011-281000-
...WEST CENTRAL VALLEYS...

CITY           SKY/WX    TMP DP  RH WIND       PRES   REMARKS
GRAND JUNCTION CLEAR     26  22  84 E7        29.78R WCI  18
MONTROSE       CLEAR     16  13  88 SE7       29.81R WCI   6
EAGLE          CLOUDY    19  16  86 E7        29.81S WCI  10
RIFLE          CLEAR     21  17  84 CALM      29.79S
DELTA          CLEAR     24  22  91 N5        29.81R WCI  18
NUCLA          CLEAR     23  19  86 E6        29.82R WCI  16
$$

COZ017>023-064>068-281000-
...SOUTHWEST COLORADO...

CITY           SKY/WX    TMP DP  RH WIND       PRES   REMARKS
DURANGO        LGT SNOW  25  24  96 E5        29.78S FOG     WCI  19
CORTEZ         CLOUDY    29  28  96 E3        29.77F FOG
PAGOSA SPRINGS LGT SNOW  24  24  99 CALM      29.78S
TELLURIDE      PTCLDY    20  12  73 CALM      29.75R
WOLF CREEK PAS LGT SNOW   9   9 100 SW10      29.74S WCI  -6
$$

COZ009-010-012-014-032>034-037-058>063-281000-
...CENTRAL COLORADO...

CITY           SKY/WX    TMP DP  RH WIND       PRES   REMARKS
ASPEN          PTCLDY     4   0  83 SW5       29.74S WCI  -5
BUENA VISTA    CLOUDY    11   8  85 CALM      29.79F
COPPER MTN     PTCLDY     9   1  72 S8        29.67S WCI  -4
BERTHOUD PASS  FAIR       1  -6  71 W15       29.65F WCI -18
COTTONWOOD PAS MOCLDY    14  10  85 CALM      29.73S
GUNNISON       PTCLDY    12   3  67 N5        29.80R WCI   4
KREMMLING      CLOUDY    12   9  85 CALM      29.80R
LEADVILLE      FLURRIES   4   1  88 E3        29.72R
SALIDA         MOCLDY     8   5  87 W5        29.88S WCI   0
SUNLIGHT       PTCLDY    12   9  85 CALM        N/A
WILKERSON PASS MOCLDY     9   5  85 SW8       29.71S WCI  -4
$$

COZ069>075-281000-
...SAN LUIS VALLEY/SANGRE DE CRISTO MOUNTAINS...

CITY           SKY/WX    TMP DP  RH WIND       PRES   REMARKS
ALAMOSA        CLOUDY    12   8  84 CALM      29.79S
LA VETA PASS   LGT SNOW  16  12  86 MISG      29.72S
SAGUACHE       CLOUDY    19  18  93 CALM      29.79S
$$

COZ035-036-038>040-281000-
...NORTHERN COLORADO FRONT RANGE...

CITY           SKY/WX    TMP DP  RH WIND       PRES   REMARKS
DENVER INTL AP PTCLDY     6   1  80 S5        29.87F WCI  -3
DMNS CITY PARK   N/A      6   3  91 N2        29.87S
AURORA         NOT AVBL
FRONT RANGE AP NOT AVBL
ERIE MUNI ARPT PTCLDY    -2  -4  88 CALM      29.89F
BOULDER MUN AP PTCLDY     9   7  92 CALM      29.87F
CENTENNIAL     MOCLDY     5   1  83 S3        29.83F
BROOMFIELD     PTCLDY    10   7  85 CALM      29.86F
FORT COLLINS   PTCLDY     7   3  85 NE3       29.90F
LONGMONT       PTCLDY     2  -2  81 CALM      29.92F
$$

COZ041-046-047-076>085-087-088-281000-
...PIKES PEAK/PALMER DIVIDE AND SOUTHERN FOOTHILLS...

CITY           SKY/WX    TMP DP  RH WIND       PRES   REMARKS
COLO. SPRINGS  CLOUDY     5   2  87 CALM      29.86F
A. F. ACADEMY  CLOUDY     5   1  84 VRB2      29.82F
ELLICOTT       NOT AVBL
FALCON         LGT SNOW   4   1  86 SW5       29.81F WCI  -5
FORT CARSON    CLOUDY     3   0  85 CALM      29.86F
LIMON          CLOUDY     5   3  91 S13       29.92F WCI -12
MONUMENT HILL  PTCLDY     1  -2  85 SW8       29.76F WCI -12
TRINIDAD       PTCLDY     7   2  80 NW7       29.89S WCI  -5
$$

COZ042>045-048>051-090-091-281000-
...NORTHEAST COLORADO...

CITY           SKY/WX    TMP DP  RH WIND       PRES   REMARKS
GREELEY ARPT   PTCLDY     3  -6  66 CALM      29.91F
AKRON          CLOUDY     8   4  83 S9        29.95F WCI  -5
BURLINGTON     CLOUDY    10   5  80 S15       30.04F WCI  -7
WRAY           CLOUDY    14   9  81 S10       30.08F WCI   1
STERLING       MOCLDY    10   5  79 S7        30.00F WCI   0
HOLYOKE        NOT AVBL
FORT MORGAN    PTCLDY     8   3  80 S7        29.96S WCI  -4
$$

COZ086-089-092>099-281000-
...SOUTHEAST COLORADO...

CITY           SKY/WX    TMP DP  RH WIND       PRES   REMARKS
PUEBLO         MOCLDY     7   4  87 N3        29.96F
LA JUNTA       PTCLDY     9   5  84 SW5       29.98F WCI   1
LAMAR          MOCLDY    14   9  80 SE13      30.03F WCI   0
SPRINGFIELD      N/A     11   9  92 S17       30.01F WCI  -6
$$


USA.gov is the U.S. government's official web portal to all federal, state and local government web resources and services.